sat.trackr.live / text

‹ back to catalog

STARLINK-37327

NORAD 68736 · 2026-082J

PAYLOAD ACTIVE UNKNOWN

§ Identity

Operator
Country
US
Launch date
2026-04-15
Launch site
AFWTR
Launch vehicle
Mass (kg)
RCS (m²)

Purposes: comms

External: N2YO · Heavens-Above · Gunter

§ Orbital elements

Epoch: 2026-09-19T09:30:17.748000Z

Period
93.91 min
Inclination
97.2883°
Eccentricity
0.0001066
Mean motion
15.33446642 rev/d
Perigee alt
464.8 km
Apogee alt
466.3 km
Semi-major
6,843.7 km
B*
3.2839e-4
RAAN
124.5215°
Arg perigee
94.6753°
Mean anomaly
265.4611°
Rev number
2,413

§ Raw data

STARLINK-373271 68736U 26082J   26262.39603875  .00010542  00000+0  32839-3 0  99962 68736  97.2883 124.5215 0001066  94.6753 265.4611 15.33446642 24139

JSON: /api/v1/satellites/68736 · /tle

For live sub-satellite position, see the globe view (requires WebGL).

§ Visibility from observer

Set your observer location to see the next 7 days of passes ≥ 10°. The values pass through the URL so the page stays shareable.

No JS? Fill the form by hand. The geolocation button needs JavaScript.